Location: L'Union
(43.6635°N, 1.4699°E)
Time: 05:12:47
(UTC+02:00)

Envisat - Visible Passes

Search period start: 31 July 2021 00:00
Search period end: 10 August 2021 00:00
Orbit: 764 x 766 km, 98.2° (Epoch: 30 July)

Date Brightness Start Highest point End Pass type
(mag) Time Alt. Az. Time Alt. Az. Time Alt. Az.
31 Jul 6.0 05:46:15 10° ENE 05:47:54 11° E 05:49:33 10° ESE visible
02 Aug 5.6 06:09:49 10° NE 06:13:34 20° E 06:17:17 10° SE visible
05 Aug 5.8 05:58:50 10° NE 06:01:57 16° E 06:05:02 10° SE visible
08 Aug 5.9 05:48:11 10° ENE 05:50:19 12° E 05:52:27 10° ESE visible
